Location: Newark
(42.8270°N, 8.3618°W)
Time: 04:06:59
(UTC+00:00)

X-37B - Visible Passes

Search period start: 29 September 2020 00:00
Search period end: 09 October 2020 00:00
Orbit: 386 x 387 km, 45.0° (Epoch: 18 September)

Date Brightness Start Highest point End Pass type
(mag) Time Alt. Az. Time Alt. Az. Time Alt. Az.
01 Oct 2.9 20:05:29 10° SW 20:06:26 17° SSW 20:06:26 17° SSW visible
02 Oct 2.3 19:07:36 10° SSW 19:09:57 19° SE 19:10:55 17° ESE visible
02 Oct 3.9 20:43:06 10° WSW 20:43:12 11° WSW 20:43:12 11° WSW visible
03 Oct 0.8 19:44:38 10° SW 19:47:32 53° S 19:47:32 53° S visible
04 Oct 1.6 18:46:21 10° SW 18:49:14 32° SSE 18:51:46 12° E visible
04 Oct 2.9 20:22:34 10° W 20:24:03 25° W 20:24:03 25° W visible
05 Oct 0.5 19:23:58 10° WSW 19:27:09 85° SSE 19:28:11 39° ENE visible
06 Oct 1.7 20:02:06 10° W 20:04:31 43° WNW 20:04:31 43° WNW visible
07 Oct 0.7 19:03:26 10° W 19:06:37 70° NNW 19:08:32 21° ENE visible
07 Oct 3.9 20:40:17 10° WNW 20:40:48 14° WNW 20:40:48 14° WNW visible
08 Oct 1.0 19:41:39 10° W 19:44:47 54° N 19:44:48 54° N visible
